Time,TemperatureF,DewpointF,PressureIn,WindDirection,WindDirectionDegrees,WindSpeedMPH,WindSpeedGustMPH,Humidity,HourlyPrecipIn,Conditions,Clouds,dailyrainin,SoftwareType,DateUTC
2013-08-06 00:01:00,52.6,51.2,29.99,North,349,0.0,0.0,95,0.00,CLR,,0.00,WeatherDisplay:10.37,2013-08-06 08:01:00,
2013-08-06 00:06:00,52.6,51.2,29.99,North,349,0.0,0.0,95,0.00,CLR,,0.00,WeatherDisplay:10.37,2013-08-06 08:06:00,
2013-08-06 00:11:00,52.6,51.2,29.99,North,349,0.0,0.0,95,0.00,CLR,,0.00,WeatherDisplay:10.37,2013-08-06 08:11:00,
2013-08-06 00:16:00,52.6,51.2,29.99,North,349,0.0,0.0,95,0.00,CLR,,0.00,WeatherDisplay:10.37,2013-08-06 08:16:00,
2013-08-06 00:21:00,52.7,51.3,29.99,North,349,0.0,0.0,95,0.00,CLR,,0.00,WeatherDisplay:10.37,2013-08-06 08:21:00,
2013-08-06 00:26:00,52.7,51.6,29.99,North,349,0.0,0.0,96,0.00,CLR,,0.00,WeatherDisplay:10.37,2013-08-06 08:26:00,
2013-08-06 00:31:00,52.7,51.3,29.99,North,349,0.0,0.0,95,0.00,CLR,,0.00,WeatherDisplay:10.37,2013-08-06 08:31:00,
2013-08-06 00:36:00,52.6,51.2,29.99,NNW,348,0.0,0.0,95,0.00,CLR,,0.00,WeatherDisplay:10.37,2013-08-06 08:36:00,
2013-08-06 00:41:00,52.6,51.2,29.99,NNW,348,0.0,0.0,95,0.00,CLR,,0.00,WeatherDisplay:10.37,2013-08-06 08:41:00,
2013-08-06 00:46:00,52.7,51.3,29.99,North,349,0.0,0.0,95,0.00,CLR,,0.00,WeatherDisplay:10.37,2013-08-06 08:46:00,
2013-08-06 00:51:00,52.7,51.3,29.98,NNW,348,0.0,0.0,95,0.00,CLR,,0.00,WeatherDisplay:10.37,2013-08-06 08:51:00,
2013-08-06 00:56:00,52.7,51.3,29.99,North,349,0.0,0.0,95,0.00,CLR,,0.00,WeatherDisplay:10.37,2013-08-06 08:56:00,
2013-08-06 01:01:00,52.7,51.3,29.99,North,349,0.0,0.0,95,0.00,CLR,,0.00,WeatherDisplay:10.37,2013-08-06 09:01:00,
2013-08-06 01:06:00,52.7,51.3,29.99,North,349,0.0,0.0,95,0.00,CLR,,0.00,WeatherDisplay:10.37,2013-08-06 09:06:00,
2013-08-06 01:11:00,52.7,51.3,29.99,North,349,0.0,0.0,95,0.00,CLR,,0.00,WeatherDisplay:10.37,2013-08-06 09:11:00,
2013-08-06 01:16:00,52.7,51.3,29.99,NNW,348,0.0,0.0,95,0.00,CLR,,0.00,WeatherDisplay:10.37,2013-08-06 09:16:00,
2013-08-06 01:21:00,52.7,51.3,29.98,North,349,0.0,0.0,95,0.00,CLR,,0.00,WeatherDisplay:10.37,2013-08-06 09:21:00,
2013-08-06 01:26:00,52.7,51.3,29.98,North,349,0.0,0.0,95,0.00,CLR,,0.00,WeatherDisplay:10.37,2013-08-06 09:26:00,
2013-08-06 01:31:00,52.7,51.3,29.98,North,349,0.0,0.0,95,0.00,CLR,,0.00,WeatherDisplay:10.37,2013-08-06 09:31:00,
2013-08-06 01:36:00,52.6,51.2,29.98,NNW,348,0.0,0.0,95,0.00,CLR,,0.00,WeatherDisplay:10.37,2013-08-06 09:36:00,
2013-08-06 01:41:00,52.6,51.2,29.97,North,349,0.0,0.0,95,0.00,CLR,,0.00,WeatherDisplay:10.37,2013-08-06 09:41:00,
2013-08-06 01:46:00,52.6,51.2,29.97,North,349,0.0,0.0,95,0.00,CLR,,0.00,WeatherDisplay:10.37,2013-08-06 09:46:00,
2013-08-06 01:51:00,52.6,51.2,29.98,North,349,0.0,0.0,95,0.00,CLR,,0.00,WeatherDisplay:10.37,2013-08-06 09:51:00,
2013-08-06 01:56:00,52.7,51.3,29.98,NNW,348,0.0,0.0,95,0.00,CLR,,0.00,WeatherDisplay:10.37,2013-08-06 09:56:00,
2013-08-06 02:01:00,52.7,51.3,29.97,NNW,348,0.0,0.0,95,0.00,CLR,,0.00,WeatherDisplay:10.37,2013-08-06 10:01:00,
2013-08-06 02:06:00,52.6,51.2,29.97,North,349,0.0,0.0,95,0.00,CLR,,0.00,WeatherDisplay:10.37,2013-08-06 10:06:00,
2013-08-06 02:11:00,52.7,51.3,29.98,North,349,0.0,0.0,95,0.00,CLR,,0.00,WeatherDisplay:10.37,2013-08-06 10:11:00,
2013-08-06 02:16:00,52.7,51.3,29.98,North,349,0.0,0.0,95,0.00,CLR,,0.00,WeatherDisplay:10.37,2013-08-06 10:16:00,
2013-08-06 02:21:00,52.8,51.4,29.98,North,349,0.0,0.0,95,0.00,CLR,,0.00,WeatherDisplay:10.37,2013-08-06 10:21:00,
2013-08-06 02:26:00,52.8,51.4,29.97,NNW,348,0.0,0.0,95,0.00,CLR,,0.00,WeatherDisplay:10.37,2013-08-06 10:26:00,
2013-08-06 02:31:00,52.9,51.5,29.97,NNW,348,0.0,0.0,95,0.00,CLR,,0.00,WeatherDisplay:10.37,2013-08-06 10:31:00,
2013-08-06 02:36:00,52.9,51.5,29.97,North,349,0.0,0.0,95,0.00,CLR,,0.00,WeatherDisplay:10.37,2013-08-06 10:36:00,
2013-08-06 02:41:00,52.7,51.3,29.97,North,349,0.0,0.0,95,0.00,CLR,,0.00,WeatherDisplay:10.37,2013-08-06 10:41:00,
2013-08-06 02:46:00,52.7,51.3,29.97,North,349,0.0,0.0,95,0.00,CLR,,0.00,WeatherDisplay:10.37,2013-08-06 10:46:00,
2013-08-06 02:51:00,52.7,51.3,29.97,North,349,0.0,0.0,95,0.00,CLR,,0.00,WeatherDisplay:10.37,2013-08-06 10:51:00,
2013-08-06 02:56:00,52.7,51.3,29.97,NNW,348,0.0,0.0,95,0.00,CLR,,0.00,WeatherDisplay:10.37,2013-08-06 10:56:00,
2013-08-06 03:01:00,52.7,51.3,29.97,North,349,0.0,0.0,95,0.00,CLR,,0.00,WeatherDisplay:10.37,2013-08-06 11:01:00,
2013-08-06 03:06:00,52.7,51.3,29.97,NNW,348,0.0,0.0,95,0.00,CLR,,0.00,WeatherDisplay:10.37,2013-08-06 11:06:00,
2013-08-06 03:11:00,52.7,51.3,29.97,NNW,348,0.0,0.0,95,0.00,CLR,,0.00,WeatherDisplay:10.37,2013-08-06 11:11:00,
2013-08-06 03:16:00,52.7,51.3,29.97,North,349,0.0,0.0,95,0.00,CLR,,0.00,WeatherDisplay:10.37,2013-08-06 11:16:00,
2013-08-06 03:21:00,52.7,51.3,29.97,North,349,0.0,0.0,95,0.00,CLR,,0.00,WeatherDisplay:10.37,2013-08-06 11:21:00,
2013-08-06 03:26:00,52.7,51.3,29.97,North,349,0.0,0.0,95,0.00,CLR,,0.00,WeatherDisplay:10.37,2013-08-06 11:26:00,
2013-08-06 03:31:00,52.6,51.2,29.97,North,349,0.0,0.0,95,0.00,CLR,,0.00,WeatherDisplay:10.37,2013-08-06 11:31:00,
2013-08-06 03:36:00,52.5,51.1,29.97,North,349,0.0,0.0,95,0.00,CLR,,0.00,WeatherDisplay:10.37,2013-08-06 11:36:00,
2013-08-06 03:41:00,52.4,51.0,29.97,NNW,348,0.0,0.0,95,0.00,CLR,,0.00,WeatherDisplay:10.37,2013-08-06 11:41:00,
2013-08-06 03:46:00,52.3,50.9,29.97,NNW,348,0.0,0.0,95,0.00,CLR,,0.00,WeatherDisplay:10.37,2013-08-06 11:46:00,
2013-08-06 03:51:00,52.3,50.9,29.97,North,349,0.0,0.0,95,0.00,CLR,,0.00,WeatherDisplay:10.37,2013-08-06 11:51:00,
2013-08-06 03:56:00,52.2,50.8,29.97,North,349,0.0,0.0,95,0.00,CLR,,0.00,WeatherDisplay:10.37,2013-08-06 11:56:00,
2013-08-06 04:01:00,52.3,51.2,29.97,North,349,0.0,0.0,96,0.00,CLR,,0.00,WeatherDisplay:10.37,2013-08-06 12:01:00,
2013-08-06 04:06:00,52.3,51.2,29.97,NNW,348,0.0,0.0,96,0.00,CLR,,0.00,WeatherDisplay:10.37,2013-08-06 12:06:00,
2013-08-06 04:11:00,52.2,51.1,29.96,North,349,0.0,0.0,96,0.00,CLR,,0.00,WeatherDisplay:10.37,2013-08-06 12:11:00,
2013-08-06 04:16:00,52.2,51.1,29.96,North,349,0.0,0.0,96,0.00,CLR,,0.00,WeatherDisplay:10.37,2013-08-06 12:16:00,
2013-08-06 04:21:00,52.2,51.1,29.96,North,349,0.0,0.0,96,0.00,CLR,,0.00,WeatherDisplay:10.37,2013-08-06 12:21:00,
2013-08-06 04:26:00,52.1,50.7,29.96,North,349,0.0,0.0,95,0.00,CLR,,0.00,WeatherDisplay:10.37,2013-08-06 12:26:00,
2013-08-06 04:31:00,52.1,50.7,29.96,North,349,0.0,0.0,95,0.00,CLR,,0.00,WeatherDisplay:10.37,2013-08-06 12:31:00,
2013-08-06 04:36:00,52.1,50.7,29.96,North,349,0.0,0.0,95,0.00,CLR,,0.00,WeatherDisplay:10.37,2013-08-06 12:36:00,
2013-08-06 04:41:00,52.1,51.0,29.96,North,349,0.0,0.0,96,0.00,CLR,,0.00,WeatherDisplay:10.37,2013-08-06 12:41:00,
2013-08-06 04:46:00,52.1,51.0,29.96,NNW,348,0.0,0.0,96,0.00,CLR,,0.00,WeatherDisplay:10.37,2013-08-06 12:46:00,
2013-08-06 04:51:00,52.1,51.0,29.95,NNW,348,0.0,0.0,96,0.00,CLR,,0.00,WeatherDisplay:10.37,2013-08-06 12:51:00,
2013-08-06 04:56:00,52.1,50.7,29.95,NNW,348,0.0,0.0,95,0.00,CLR,,0.00,WeatherDisplay:10.37,2013-08-06 12:56:00,
2013-08-06 05:01:00,52.1,50.7,29.95,NNW,348,0.0,0.0,95,0.00,CLR,,0.00,WeatherDisplay:10.37,2013-08-06 13:01:00,
2013-08-06 05:06:00,52.1,51.0,29.96,North,349,0.0,0.0,96,0.00,CLR,,0.00,WeatherDisplay:10.37,2013-08-06 13:06:00,
2013-08-06 05:11:00,52.1,51.0,29.96,North,349,0.0,0.0,96,0.00,CLR,,0.00,WeatherDisplay:10.37,2013-08-06 13:11:00,
2013-08-06 05:16:00,52.1,51.0,29.95,North,349,0.0,0.0,96,0.00,CLR,,0.00,WeatherDisplay:10.37,2013-08-06 13:16:00,
2013-08-06 05:21:00,52.1,51.0,29.96,NNW,348,0.0,0.0,96,0.00,CLR,,0.00,WeatherDisplay:10.37,2013-08-06 13:21:00,
2013-08-06 05:26:00,52.1,51.0,29.96,North,349,0.0,0.0,96,0.01,RA,,0.01,WeatherDisplay:10.37,2013-08-06 13:26:00,
2013-08-06 05:31:00,52.2,51.1,29.96,North,349,0.0,0.0,96,0.01,RA,,0.01,WeatherDisplay:10.37,2013-08-06 13:31:00,
2013-08-06 05:36:00,52.1,51.0,29.96,NNW,348,0.0,0.0,96,0.01,CLR,,0.01,WeatherDisplay:10.37,2013-08-06 13:36:00,
2013-08-06 05:41:00,52.1,50.7,29.96,North,349,0.0,0.0,95,0.01,CLR,,0.01,WeatherDisplay:10.37,2013-08-06 13:41:00,
2013-08-06 05:46:00,52.1,51.0,29.96,North,349,0.0,0.0,96,0.01,CLR,,0.01,WeatherDisplay:10.37,2013-08-06 13:46:00,
2013-08-06 05:51:00,52.2,51.1,29.96,NNW,348,0.0,0.0,96,0.01,CLR,,0.01,WeatherDisplay:10.37,2013-08-06 13:51:00,
2013-08-06 05:56:00,52.2,51.1,29.96,NNW,348,0.0,0.0,96,0.01,CLR,,0.01,WeatherDisplay:10.37,2013-08-06 13:56:00,
2013-08-06 06:01:00,52.2,51.1,29.95,NNW,348,0.0,0.0,96,0.01,CLR,,0.01,WeatherDisplay:10.37,2013-08-06 14:01:00,
2013-08-06 06:06:00,52.2,51.1,29.96,North,349,0.0,0.0,96,0.01,CLR,,0.01,WeatherDisplay:10.37,2013-08-06 14:06:00,
2013-08-06 06:11:00,52.1,50.7,29.95,North,349,0.0,0.0,95,0.01,CLR,,0.01,WeatherDisplay:10.37,2013-08-06 14:11:00,
2013-08-06 06:16:00,52.0,50.6,29.96,NNW,348,0.0,0.0,95,0.01,CLR,,0.01,WeatherDisplay:10.37,2013-08-06 14:16:00,
2013-08-06 06:21:00,51.9,50.8,29.95,North,349,0.0,0.0,96,0.01,CLR,,0.01,WeatherDisplay:10.37,2013-08-06 14:21:00,
2013-08-06 06:26:00,51.9,50.8,29.95,North,349,0.0,0.0,96,0.00,CLR,,0.01,WeatherDisplay:10.37,2013-08-06 14:26:00,
2013-08-06 06:31:00,51.9,50.8,29.95,NNW,348,0.0,0.0,96,0.00,CLR,,0.01,WeatherDisplay:10.37,2013-08-06 14:31:00,
2013-08-06 06:36:00,51.9,50.8,29.95,North,349,0.0,0.0,96,0.00,CLR,,0.01,WeatherDisplay:10.37,2013-08-06 14:36:00,
2013-08-06 06:41:00,52.0,50.9,29.95,North,349,0.0,0.0,96,0.00,CLR,,0.01,WeatherDisplay:10.37,2013-08-06 14:41:00,
2013-08-06 06:46:00,52.0,50.9,29.95,North,349,0.0,0.0,96,0.00,CLR,,0.01,WeatherDisplay:10.37,2013-08-06 14:46:00,
2013-08-06 06:51:00,52.2,51.1,29.95,NNW,348,0.0,0.0,96,0.00,CLR,,0.01,WeatherDisplay:10.37,2013-08-06 14:51:00,
2013-08-06 06:56:00,52.6,51.5,29.95,North,349,0.0,0.0,96,0.00,CLR,,0.01,WeatherDisplay:10.37,2013-08-06 14:56:00,
2013-08-06 07:01:00,52.9,51.8,29.95,NNW,348,0.0,0.0,96,0.00,CLR,,0.01,WeatherDisplay:10.37,2013-08-06 15:01:00,
2013-08-06 07:06:00,53.1,51.7,29.95,NNW,348,0.0,0.0,95,0.01,RA,,0.02,WeatherDisplay:10.37,2013-08-06 15:06:00,
2013-08-06 07:11:00,53.2,51.8,29.95,NNW,348,0.0,0.0,95,0.01,RA,,0.02,WeatherDisplay:10.37,2013-08-06 15:11:00,
2013-08-06 07:16:00,53.4,51.4,29.95,NNW,348,0.0,0.0,93,0.01,,,0.02,WeatherDisplay:10.37,2013-08-06 15:16:00,
2013-08-06 07:21:00,53.5,51.5,29.95,NNW,348,0.0,0.0,93,0.01,CLR,,0.02,WeatherDisplay:10.37,2013-08-06 15:21:00,
2013-08-06 07:26:00,53.5,51.2,29.95,NNW,348,0.0,0.0,92,0.01,CLR,,0.02,WeatherDisplay:10.37,2013-08-06 15:26:00,
2013-08-06 07:31:00,53.6,51.3,29.95,NNW,348,0.0,0.0,92,0.01,CLR,,0.02,WeatherDisplay:10.37,2013-08-06 15:31:00,
2013-08-06 07:36:00,53.7,51.4,29.95,NNW,348,0.0,0.0,92,0.01,CLR,,0.02,WeatherDisplay:10.37,2013-08-06 15:36:00,
2013-08-06 07:41:00,53.8,51.5,29.95,NNW,348,0.0,0.0,92,0.01,CLR,,0.02,WeatherDisplay:10.37,2013-08-06 15:41:00,
2013-08-06 07:46:00,53.9,51.6,29.95,NNW,348,0.0,0.0,92,0.01,CLR,,0.02,WeatherDisplay:10.37,2013-08-06 15:46:00,
2013-08-06 07:51:00,54.2,51.3,29.95,NNW,348,0.0,0.0,90,0.01,CLR,,0.02,WeatherDisplay:10.37,2013-08-06 15:51:00,
2013-08-06 07:56:00,54.6,51.7,29.95,North,349,0.0,0.0,90,0.01,CLR,,0.02,WeatherDisplay:10.37,2013-08-06 15:56:00,
2013-08-06 08:01:00,54.8,51.6,29.95,North,349,0.0,0.0,89,0.01,CLR,,0.02,WeatherDisplay:10.37,2013-08-06 16:01:00,
2013-08-06 08:06:00,55.0,51.5,29.95,North,349,0.0,0.0,88,0.00,CLR,,0.02,WeatherDisplay:10.37,2013-08-06 16:06:00,
2013-08-06 08:11:00,55.0,51.8,29.95,NNW,348,0.0,0.0,89,0.00,CLR,,0.02,WeatherDisplay:10.37,2013-08-06 16:11:00,
2013-08-06 08:16:00,55.0,51.8,29.94,North,349,0.0,0.0,89,0.00,CLR,,0.02,WeatherDisplay:10.37,2013-08-06 16:16:00,
2013-08-06 08:21:00,55.1,52.2,29.94,North,349,0.0,0.0,90,0.00,CLR,,0.02,WeatherDisplay:10.37,2013-08-06 16:21:00,
2013-08-06 08:26:00,54.9,52.3,29.95,North,349,0.0,0.0,91,0.00,CLR,,0.02,WeatherDisplay:10.37,2013-08-06 16:26:00,
2013-08-06 08:31:00,54.4,51.8,29.95,North,349,0.0,0.0,91,0.00,CLR,,0.02,WeatherDisplay:10.37,2013-08-06 16:31:00,
2013-08-06 08:36:00,54.1,51.5,29.95,North,349,0.0,0.0,91,0.00,CLR,,0.02,WeatherDisplay:10.37,2013-08-06 16:36:00,
2013-08-06 08:41:00,53.9,51.6,29.95,NNW,348,0.0,0.0,92,0.00,CLR,,0.02,WeatherDisplay:10.37,2013-08-06 16:41:00,
2013-08-06 08:46:00,53.8,51.5,29.95,NNW,348,0.0,0.0,92,0.00,CLR,,0.02,WeatherDisplay:10.37,2013-08-06 16:46:00,
2013-08-06 08:51:00,53.8,51.5,29.95,NNW,348,0.0,0.0,92,0.00,CLR,,0.02,WeatherDisplay:10.37,2013-08-06 16:51:00,
2013-08-06 08:56:00,53.8,51.5,29.95,North,349,0.0,0.0,92,0.00,CLR,,0.02,WeatherDisplay:10.37,2013-08-06 16:56:00,
2013-08-06 09:01:00,53.8,51.5,29.94,North,349,0.0,0.0,92,0.00,CLR,,0.02,WeatherDisplay:10.37,2013-08-06 17:01:00,
2013-08-06 09:06:00,53.9,51.6,29.94,North,349,0.0,0.0,92,0.00,CLR,,0.02,WeatherDisplay:10.37,2013-08-06 17:06:00,
2013-08-06 09:11:00,53.9,51.6,29.94,North,349,0.0,0.0,92,0.00,CLR,,0.02,WeatherDisplay:10.37,2013-08-06 17:11:00,
2013-08-06 09:16:00,54.0,51.7,29.94,NNW,348,0.0,0.0,92,0.00,CLR,,0.02,WeatherDisplay:10.37,2013-08-06 17:16:00,
2013-08-06 09:21:00,54.1,51.8,29.94,NNW,348,0.0,0.0,92,0.00,CLR,,0.02,WeatherDisplay:10.37,2013-08-06 17:21:00,
2013-08-06 09:26:00,54.1,51.8,29.95,North,349,0.0,0.0,92,0.00,CLR,,0.02,WeatherDisplay:10.37,2013-08-06 17:26:00,
2013-08-06 09:27:00,54.1,51.8,29.94,North,349,0.0,0.0,92,0.00,CLR,,0.02,WeatherDisplay:10.37,2013-08-06 17:27:00,
2013-08-06 09:32:00,54.2,51.9,29.94,North,349,0.0,0.0,92,0.00,CLR,,0.02,WeatherDisplay:10.37,2013-08-06 17:32:00,
2013-08-06 09:37:00,54.2,51.9,29.95,NNW,348,0.0,0.0,92,0.00,CLR,,0.02,WeatherDisplay:10.37,2013-08-06 17:37:00,
2013-08-06 09:42:00,54.4,52.1,29.95,North,349,0.0,0.0,92,0.00,CLR,,0.02,WeatherDisplay:10.37,2013-08-06 17:42:00,
2013-08-06 09:47:00,54.4,52.1,29.95,North,349,0.0,0.0,92,0.00,CLR,,0.02,WeatherDisplay:10.37,2013-08-06 17:47:00,
2013-08-06 09:52:00,54.5,51.9,29.94,NNW,348,0.0,0.0,91,0.00,CLR,,0.02,WeatherDisplay:10.37,2013-08-06 17:52:00,
2013-08-06 09:57:00,54.5,52.2,29.94,NNW,348,0.0,0.0,92,0.00,CLR,,0.02,WeatherDisplay:10.37,2013-08-06 17:57:00,
2013-08-06 10:02:00,54.6,52.3,29.95,North,349,0.0,0.0,92,0.00,CLR,,0.02,WeatherDisplay:10.37,2013-08-06 18:02:00,
2013-08-06 10:07:00,54.8,52.5,29.95,North,349,0.0,0.0,92,0.00,CLR,,0.02,WeatherDisplay:10.37,2013-08-06 18:07:00,
2013-08-06 10:12:00,54.9,52.3,29.95,NNW,348,0.0,0.0,91,0.00,CLR,,0.02,WeatherDisplay:10.37,2013-08-06 18:12:00,
2013-08-06 10:17:00,55.0,52.7,29.95,NNW,348,0.0,0.0,92,0.00,CLR,,0.02,WeatherDisplay:10.37,2013-08-06 18:17:00,
2013-08-06 10:22:00,55.0,52.7,29.94,North,349,0.0,0.0,92,0.00,CLR,,0.02,WeatherDisplay:10.37,2013-08-06 18:22:00,
2013-08-06 10:27:00,55.1,52.8,29.94,NNW,348,0.0,0.0,92,0.00,CLR,,0.02,WeatherDisplay:10.37,2013-08-06 18:27:00,
2013-08-06 10:32:00,55.3,52.4,29.94,North,349,0.0,0.0,90,0.00,CLR,,0.02,WeatherDisplay:10.37,2013-08-06 18:32:00,
2013-08-06 10:37:00,55.5,52.6,29.94,North,349,0.0,0.0,90,0.00,CLR,,0.02,WeatherDisplay:10.37,2013-08-06 18:37:00,
2013-08-06 10:42:00,55.6,52.7,29.94,North,349,0.0,0.0,90,0.00,CLR,,0.02,WeatherDisplay:10.37,2013-08-06 18:42:00,
2013-08-06 10:47:00,55.6,52.7,29.94,North,349,0.0,0.0,90,0.00,CLR,,0.02,WeatherDisplay:10.37,2013-08-06 18:47:00,
2013-08-06 10:52:00,55.6,52.7,29.94,NNW,348,0.0,0.0,90,0.00,CLR,,0.02,WeatherDisplay:10.37,2013-08-06 18:52:00,
2013-08-06 10:57:00,55.6,52.7,29.94,North,349,0.0,0.0,90,0.00,CLR,,0.02,WeatherDisplay:10.37,2013-08-06 18:57:00,
2013-08-06 11:02:00,55.6,52.7,29.94,North,349,0.0,0.0,90,0.00,CLR,,0.02,WeatherDisplay:10.37,2013-08-06 19:02:00,
2013-08-06 11:07:00,55.6,52.7,29.94,North,349,0.0,0.0,90,0.00,CLR,,0.02,WeatherDisplay:10.37,2013-08-06 19:07:00,
2013-08-06 11:12:00,55.6,52.7,29.94,NNW,348,0.0,0.0,90,0.00,CLR,,0.02,WeatherDisplay:10.37,2013-08-06 19:12:00,
2013-08-06 11:17:00,55.8,52.0,29.93,North,349,0.0,0.0,87,0.00,CLR,,0.02,WeatherDisplay:10.37,2013-08-06 19:17:00,
2013-08-06 11:22:00,56.2,52.1,29.93,North,349,0.0,0.0,86,0.00,CLR,,0.02,WeatherDisplay:10.37,2013-08-06 19:22:00,
2013-08-06 11:27:00,56.7,52.9,29.93,NNW,348,0.0,0.0,87,0.00,CLR,,0.02,WeatherDisplay:10.37,2013-08-06 19:27:00,
2013-08-06 11:32:00,57.1,52.3,29.93,NNW,348,0.0,0.0,84,0.00,CLR,,0.02,WeatherDisplay:10.37,2013-08-06 19:32:00,
2013-08-06 11:37:00,57.5,52.7,29.93,North,349,0.0,0.0,84,0.00,CLR,,0.02,WeatherDisplay:10.37,2013-08-06 19:37:00,
2013-08-06 11:42:00,57.7,52.9,29.93,North,349,0.0,0.0,84,0.00,CLR,,0.02,WeatherDisplay:10.37,2013-08-06 19:42:00,
2013-08-06 11:47:00,57.9,52.4,29.93,North,349,0.0,0.0,82,0.00,CLR,,0.02,WeatherDisplay:10.37,2013-08-06 19:47:00,
2013-08-06 11:52:00,58.1,52.6,29.93,NNW,348,0.0,0.0,82,0.00,CLR,,0.02,WeatherDisplay:10.37,2013-08-06 19:52:00,
2013-08-06 11:57:00,58.1,52.6,29.93,North,349,0.0,0.0,82,0.00,CLR,,0.02,WeatherDisplay:10.37,2013-08-06 19:57:00,
2013-08-06 12:02:00,58.2,52.4,29.93,NNW,348,0.0,0.0,81,0.00,CLR,,0.02,WeatherDisplay:10.37,2013-08-06 20:02:00,
2013-08-06 12:07:00,58.2,52.4,29.93,NNW,348,0.0,0.0,81,0.00,CLR,,0.02,WeatherDisplay:10.37,2013-08-06 20:07:00,
2013-08-06 12:12:00,58.3,52.2,29.93,NNW,348,0.0,0.0,80,0.00,CLR,,0.02,WeatherDisplay:10.37,2013-08-06 20:12:00,
2013-08-06 12:17:00,58.4,52.6,29.93,North,349,0.0,0.0,81,0.00,CLR,,0.02,WeatherDisplay:10.37,2013-08-06 20:17:00,
2013-08-06 12:22:00,58.5,52.4,29.93,North,349,0.0,0.0,80,0.00,CLR,,0.02,WeatherDisplay:10.37,2013-08-06 20:22:00,
2013-08-06 12:27:00,58.7,52.5,29.93,NNW,348,0.0,0.0,80,0.00,CLR,,0.02,WeatherDisplay:10.37,2013-08-06 20:27:00,
2013-08-06 12:32:00,59.0,52.5,29.93,North,349,0.0,0.0,79,0.00,CLR,,0.02,WeatherDisplay:10.37,2013-08-06 20:32:00,
2013-08-06 12:37:00,59.0,52.1,29.93,North,349,0.0,0.0,78,0.00,CLR,,0.02,WeatherDisplay:10.37,2013-08-06 20:37:00,
2013-08-06 12:42:00,59.0,52.8,29.93,North,349,0.0,0.0,80,0.00,CLR,,0.02,WeatherDisplay:10.37,2013-08-06 20:42:00,
2013-08-06 12:47:00,59.0,52.5,29.93,NNW,348,0.0,0.0,79,0.00,CLR,,0.02,WeatherDisplay:10.37,2013-08-06 20:47:00,
2013-08-06 12:52:00,59.0,52.5,29.93,North,349,0.0,0.0,79,0.00,CLR,,0.02,WeatherDisplay:10.37,2013-08-06 20:52:00,
2013-08-06 12:57:00,59.0,52.8,29.93,North,349,0.0,0.0,80,0.00,CLR,,0.02,WeatherDisplay:10.37,2013-08-06 20:57:00,
2013-08-06 13:02:00,59.0,53.2,29.93,North,349,0.0,0.0,81,0.00,CLR,,0.02,WeatherDisplay:10.37,2013-08-06 21:02:00,
2013-08-06 13:07:00,59.0,53.2,29.93,North,349,0.0,0.0,81,0.00,CLR,,0.02,WeatherDisplay:10.37,2013-08-06 21:07:00,
2013-08-06 13:12:00,59.0,53.2,29.93,NNW,348,0.0,0.0,81,0.00,CLR,,0.02,WeatherDisplay:10.37,2013-08-06 21:12:00,
2013-08-06 13:17:00,59.0,53.2,29.93,North,349,0.0,0.0,81,0.00,CLR,,0.02,WeatherDisplay:10.37,2013-08-06 21:17:00,
2013-08-06 13:22:00,59.0,53.5,29.93,North,349,0.0,0.0,82,0.00,CLR,,0.02,WeatherDisplay:10.37,2013-08-06 21:22:00,
2013-08-06 13:27:00,58.7,53.5,29.93,North,349,0.0,0.0,83,0.00,CLR,,0.02,WeatherDisplay:10.37,2013-08-06 21:27:00,
2013-08-06 13:32:00,58.5,53.4,29.94,NNW,348,0.0,0.0,83,0.00,CLR,,0.02,WeatherDisplay:10.37,2013-08-06 21:32:00,
2013-08-06 13:37:00,58.2,53.7,29.94,North,349,0.0,0.0,85,0.00,CLR,,0.02,WeatherDisplay:10.37,2013-08-06 21:37:00,
2013-08-06 13:42:00,58.1,53.9,29.94,North,349,0.0,0.0,86,0.00,CLR,,0.02,WeatherDisplay:10.37,2013-08-06 21:42:00,
2013-08-06 13:47:00,57.9,54.4,29.94,NNW,348,0.0,0.0,88,0.00,CLR,,0.02,WeatherDisplay:10.37,2013-08-06 21:47:00,
2013-08-06 13:52:00,57.7,54.2,29.94,NNW,348,0.0,0.0,88,0.00,CLR,,0.02,WeatherDisplay:10.37,2013-08-06 21:52:00,
2013-08-06 13:57:00,57.5,54.0,29.94,North,349,0.0,0.0,88,0.00,CLR,,0.02,WeatherDisplay:10.37,2013-08-06 21:57:00,
2013-08-06 14:02:00,57.3,54.4,29.94,North,349,0.0,0.0,90,0.01,RA,,0.03,WeatherDisplay:10.37,2013-08-06 22:02:00,
2013-08-06 14:07:00,57.0,54.1,29.94,NNW,348,0.0,0.0,90,0.01,RA,,0.03,WeatherDisplay:10.37,2013-08-06 22:07:00,
2013-08-06 14:12:00,56.8,53.9,29.94,North,349,0.0,0.0,90,0.01,CLR,,0.03,WeatherDisplay:10.37,2013-08-06 22:12:00,
2013-08-06 14:17:00,56.5,53.6,29.94,North,349,0.0,0.0,90,0.01,CLR,,0.03,WeatherDisplay:10.37,2013-08-06 22:17:00,
2013-08-06 14:22:00,56.3,53.4,29.94,NNW,348,0.0,0.0,90,0.02,RA,,0.04,WeatherDisplay:10.37,2013-08-06 22:22:00,
2013-08-06 14:27:00,56.2,53.3,29.94,NNW,348,0.0,0.0,90,0.02,RA,,0.04,WeatherDisplay:10.37,2013-08-06 22:27:00,
2013-08-06 14:32:00,56.1,53.5,29.94,NNW,348,0.0,0.0,91,0.02,CLR,,0.04,WeatherDisplay:10.37,2013-08-06 22:32:00,
2013-08-06 14:37:00,56.1,53.2,29.94,North,349,0.0,0.0,90,0.02,CLR,,0.04,WeatherDisplay:10.37,2013-08-06 22:37:00,
2013-08-06 14:42:00,56.1,53.2,29.94,North,349,0.0,0.0,90,0.02,CLR,,0.04,WeatherDisplay:10.37,2013-08-06 22:42:00,
2013-08-06 14:47:00,56.2,53.3,29.95,NNW,348,0.0,0.0,90,0.03,RA,,0.05,WeatherDisplay:10.37,2013-08-06 22:47:00,
2013-08-06 14:52:00,56.2,53.0,29.95,North,349,0.0,0.0,89,0.03,RA,,0.05,WeatherDisplay:10.37,2013-08-06 22:52:00,
2013-08-06 14:57:00,56.2,53.0,29.95,North,349,0.0,0.0,89,0.03,,,0.05,WeatherDisplay:10.37,2013-08-06 22:57:00,
2013-08-06 15:02:00,56.2,52.7,29.95,NNW,348,0.0,0.0,88,0.02,CLR,,0.05,WeatherDisplay:10.37,2013-08-06 23:02:00,
2013-08-06 15:07:00,56.1,52.9,29.95,NNW,348,0.0,0.0,89,0.02,CLR,,0.05,WeatherDisplay:10.37,2013-08-06 23:07:00,
2013-08-06 15:12:00,56.1,52.6,29.95,North,349,0.0,0.0,88,0.03,RA,,0.06,WeatherDisplay:10.37,2013-08-06 23:12:00,
2013-08-06 15:17:00,56.2,52.4,29.94,North,349,0.0,0.0,87,0.03,RA,,0.06,WeatherDisplay:10.37,2013-08-06 23:17:00,
2013-08-06 15:22:00,56.3,52.5,29.95,North,349,0.0,0.0,87,0.02,CLR,,0.06,WeatherDisplay:10.37,2013-08-06 23:22:00,
2013-08-06 15:27:00,56.3,52.2,29.94,North,349,0.0,0.0,86,0.02,CLR,,0.06,WeatherDisplay:10.37,2013-08-06 23:27:00,
2013-08-06 15:32:00,56.7,52.2,29.94,North,349,0.0,0.0,85,0.02,CLR,,0.06,WeatherDisplay:10.37,2013-08-06 23:32:00,
2013-08-06 15:37:00,56.9,51.8,29.94,North,349,0.0,0.0,83,0.02,CLR,,0.06,WeatherDisplay:10.37,2013-08-06 23:37:00,
2013-08-06 15:42:00,57.1,52.3,29.94,North,349,0.0,0.0,84,0.02,CLR,,0.06,WeatherDisplay:10.37,2013-08-06 23:42:00,
2013-08-06 15:47:00,57.2,52.1,29.94,North,349,0.0,0.0,83,0.01,CLR,,0.06,WeatherDisplay:10.37,2013-08-06 23:47:00,
2013-08-06 15:52:00,57.2,52.4,29.94,North,349,0.0,0.0,84,0.01,CLR,,0.06,WeatherDisplay:10.37,2013-08-06 23:52:00,
2013-08-06 15:57:00,57.4,52.3,29.94,NNW,348,0.0,0.0,83,0.01,CLR,,0.06,WeatherDisplay:10.37,2013-08-06 23:57:00,
2013-08-06 16:02:00,57.3,52.5,29.94,North,349,0.0,0.0,84,0.01,CLR,,0.06,WeatherDisplay:10.37,2013-08-07 00:02:00,
2013-08-06 16:07:00,57.1,52.6,29.94,North,349,0.0,0.0,85,0.01,CLR,,0.06,WeatherDisplay:10.37,2013-08-07 00:07:00,
2013-08-06 16:12:00,57.1,52.6,29.94,North,349,0.0,0.0,85,0.00,CLR,,0.06,WeatherDisplay:10.37,2013-08-07 00:12:00,
2013-08-06 16:17:00,57.0,52.5,29.94,North,349,0.0,0.0,85,0.00,CLR,,0.06,WeatherDisplay:10.37,2013-08-07 00:17:00,
2013-08-06 16:22:00,57.1,52.3,29.93,North,349,0.0,0.0,84,0.00,CLR,,0.06,WeatherDisplay:10.37,2013-08-07 00:22:00,
2013-08-06 16:27:00,57.2,52.1,29.93,North,349,0.0,0.0,83,0.00,CLR,,0.06,WeatherDisplay:10.37,2013-08-07 00:27:00,
2013-08-06 16:32:00,57.5,52.4,29.93,North,349,0.0,0.0,83,0.00,CLR,,0.06,WeatherDisplay:10.37,2013-08-07 00:32:00,
2013-08-06 16:37:00,57.5,52.7,29.93,North,349,0.0,0.0,84,0.00,CLR,,0.06,WeatherDisplay:10.37,2013-08-07 00:37:00,
2013-08-06 16:42:00,57.3,52.5,29.93,North,349,0.0,0.0,84,0.00,CLR,,0.06,WeatherDisplay:10.37,2013-08-07 00:42:00,
2013-08-06 16:47:00,57.2,52.7,29.93,North,349,0.0,0.0,85,0.00,CLR,,0.06,WeatherDisplay:10.37,2013-08-07 00:47:00,
2013-08-06 16:52:00,57.2,52.7,29.94,North,349,0.0,0.0,85,0.00,CLR,,0.06,WeatherDisplay:10.37,2013-08-07 00:52:00,
2013-08-06 16:57:00,57.1,52.6,29.94,North,349,0.0,0.0,85,0.00,CLR,,0.06,WeatherDisplay:10.37,2013-08-07 00:57:00,
2013-08-06 17:02:00,57.0,52.5,29.94,North,349,0.0,0.0,85,0.00,CLR,,0.06,WeatherDisplay:10.37,2013-08-07 01:02:00,
2013-08-06 17:07:00,57.0,52.9,29.94,North,350,0.0,0.0,86,0.01,RA,,0.07,WeatherDisplay:10.37,2013-08-07 01:07:00,
2013-08-06 17:12:00,56.8,53.0,29.94,North,349,0.0,0.0,87,0.01,RA,,0.07,WeatherDisplay:10.37,2013-08-07 01:12:00,
2013-08-06 17:17:00,56.6,53.1,29.94,NNW,348,0.0,0.0,88,0.01,,,0.07,WeatherDisplay:10.37,2013-08-07 01:17:00,
2013-08-06 17:22:00,56.6,52.8,29.94,North,349,0.0,0.0,87,0.01,CLR,,0.07,WeatherDisplay:10.37,2013-08-07 01:22:00,
2013-08-06 17:27:00,56.8,52.7,29.94,North,349,0.0,0.0,86,0.01,CLR,,0.07,WeatherDisplay:10.37,2013-08-07 01:27:00,
2013-08-06 17:32:00,57.1,53.0,29.93,North,349,0.0,0.0,86,0.01,CLR,,0.07,WeatherDisplay:10.37,2013-08-07 01:32:00,
2013-08-06 17:37:00,57.1,53.0,29.93,North,349,0.0,0.0,86,0.01,CLR,,0.07,WeatherDisplay:10.37,2013-08-07 01:37:00,
2013-08-06 17:42:00,57.1,53.0,29.93,North,349,0.0,0.0,86,0.01,CLR,,0.07,WeatherDisplay:10.37,2013-08-07 01:42:00,
2013-08-06 17:47:00,57.1,52.3,29.93,North,349,0.0,0.0,84,0.01,CLR,,0.07,WeatherDisplay:10.37,2013-08-07 01:47:00,
2013-08-06 17:52:00,57.5,52.4,29.93,North,349,0.0,0.0,83,0.01,CLR,,0.07,WeatherDisplay:10.37,2013-08-07 01:52:00,
2013-08-06 17:57:00,57.7,52.9,29.93,North,349,0.0,0.0,84,0.01,CLR,,0.07,WeatherDisplay:10.37,2013-08-07 01:57:00,
2013-08-06 18:02:00,57.8,52.7,29.93,North,349,0.0,0.0,83,0.01,CLR,,0.07,WeatherDisplay:10.37,2013-08-07 02:02:00,
2013-08-06 18:07:00,57.9,52.4,29.93,North,349,0.0,0.0,82,0.00,CLR,,0.07,WeatherDisplay:10.37,2013-08-07 02:07:00,
2013-08-06 18:12:00,57.9,52.4,29.93,North,349,0.0,0.0,82,0.00,CLR,,0.07,WeatherDisplay:10.37,2013-08-07 02:12:00,
2013-08-06 18:17:00,57.8,52.3,29.93,North,349,0.0,0.0,82,0.01,RA,,0.08,WeatherDisplay:10.37,2013-08-07 02:17:00,
2013-08-06 18:22:00,57.7,52.6,29.93,North,349,0.0,0.0,83,0.01,RA,,0.08,WeatherDisplay:10.37,2013-08-07 02:22:00,
2013-08-06 18:27:00,57.7,52.6,29.93,North,349,0.0,0.0,83,0.01,CLR,,0.08,WeatherDisplay:10.37,2013-08-07 02:27:00,
2013-08-06 18:32:00,57.7,52.9,29.93,North,349,0.0,0.0,84,0.01,CLR,,0.08,WeatherDisplay:10.37,2013-08-07 02:32:00,
2013-08-06 18:37:00,57.6,52.8,29.93,North,349,0.0,0.0,84,0.01,CLR,,0.08,WeatherDisplay:10.37,2013-08-07 02:37:00,
2013-08-06 18:42:00,57.5,52.7,29.93,North,349,0.0,0.0,84,0.01,CLR,,0.08,WeatherDisplay:10.37,2013-08-07 02:42:00,
2013-08-06 18:47:00,57.6,52.8,29.93,NNW,348,0.0,0.0,84,0.01,CLR,,0.08,WeatherDisplay:10.37,2013-08-07 02:47:00,
2013-08-06 18:52:00,57.7,52.6,29.93,NNW,348,0.0,0.0,83,0.01,CLR,,0.08,WeatherDisplay:10.37,2013-08-07 02:52:00,
2013-08-06 18:57:00,57.9,52.8,29.93,North,349,0.0,0.0,83,0.01,CLR,,0.08,WeatherDisplay:10.37,2013-08-07 02:57:00,
2013-08-06 19:02:00,58.0,52.9,29.93,NNW,348,0.0,0.0,83,0.01,CLR,,0.08,WeatherDisplay:10.37,2013-08-07 03:02:00,
2013-08-06 19:07:00,58.0,52.9,29.93,NNW,348,0.0,0.0,83,0.01,CLR,,0.08,WeatherDisplay:10.37,2013-08-07 03:07:00,
2013-08-06 19:12:00,57.9,52.8,29.93,North,349,0.0,0.0,83,0.01,CLR,,0.08,WeatherDisplay:10.37,2013-08-07 03:12:00,
2013-08-06 19:17:00,57.8,52.7,29.93,North,349,0.0,0.0,83,0.00,CLR,,0.08,WeatherDisplay:10.37,2013-08-07 03:17:00,
2013-08-06 19:22:00,57.6,52.8,29.93,North,349,0.0,0.0,84,0.00,CLR,,0.08,WeatherDisplay:10.37,2013-08-07 03:22:00,
2013-08-06 19:27:00,57.4,52.9,29.93,North,349,0.0,0.0,85,0.00,CLR,,0.08,WeatherDisplay:10.37,2013-08-07 03:27:00,
2013-08-06 19:32:00,57.3,52.5,29.93,North,349,0.0,0.0,84,0.00,CLR,,0.08,WeatherDisplay:10.37,2013-08-07 03:32:00,
2013-08-06 19:37:00,57.4,52.3,29.93,North,349,0.0,0.0,83,0.00,CLR,,0.08,WeatherDisplay:10.37,2013-08-07 03:37:00,
2013-08-06 19:42:00,57.6,52.5,29.93,NNW,348,0.0,0.0,83,0.00,CLR,,0.08,WeatherDisplay:10.37,2013-08-07 03:42:00,
2013-08-06 19:47:00,57.6,52.1,29.93,NNW,348,0.0,0.0,82,0.00,CLR,,0.08,WeatherDisplay:10.37,2013-08-07 03:47:00,
2013-08-06 19:52:00,57.6,52.1,29.93,North,349,0.0,0.0,82,0.00,CLR,,0.08,WeatherDisplay:10.37,2013-08-07 03:52:00,
2013-08-06 19:57:00,57.5,52.0,29.93,NNW,348,0.0,0.0,82,0.00,CLR,,0.08,WeatherDisplay:10.37,2013-08-07 03:57:00,
2013-08-06 20:01:00,57.5,52.4,29.93,North,349,0.0,0.0,83,0.00,CLR,,0.08,WeatherDisplay:10.37,2013-08-07 04:01:00,
2013-08-06 20:06:00,57.4,52.3,29.93,NNW,348,0.0,0.0,83,0.00,CLR,,0.08,WeatherDisplay:10.37,2013-08-07 04:06:00,
2013-08-06 20:11:00,57.3,51.9,29.93,North,349,0.0,0.0,82,0.00,CLR,,0.08,WeatherDisplay:10.37,2013-08-07 04:11:00,
2013-08-06 20:16:00,57.3,52.2,29.92,North,349,0.0,0.0,83,0.00,CLR,,0.08,WeatherDisplay:10.37,2013-08-07 04:16:00,
2013-08-06 20:21:00,57.3,51.9,29.92,North,349,0.0,0.0,82,0.01,RA,,0.09,WeatherDisplay:10.37,2013-08-07 04:21:00,
2013-08-06 20:26:00,57.4,52.3,29.92,North,349,0.0,0.0,83,0.01,RA,,0.09,WeatherDisplay:10.37,2013-08-07 04:26:00,
2013-08-06 20:31:00,57.3,52.2,29.92,North,349,0.0,0.0,83,0.01,,,0.09,WeatherDisplay:10.37,2013-08-07 04:31:00,
2013-08-06 20:36:00,57.2,52.1,29.92,North,349,0.0,0.0,83,0.01,CLR,,0.09,WeatherDisplay:10.37,2013-08-07 04:36:00,
2013-08-06 20:41:00,57.1,52.0,29.92,North,349,0.0,0.0,83,0.01,CLR,,0.09,WeatherDisplay:10.37,2013-08-07 04:41:00,
2013-08-06 20:46:00,57.2,51.8,29.92,North,349,0.0,0.0,82,0.01,CLR,,0.09,WeatherDisplay:10.37,2013-08-07 04:46:00,
2013-08-06 20:51:00,57.3,52.2,29.92,North,349,0.0,0.0,83,0.01,CLR,,0.09,WeatherDisplay:10.37,2013-08-07 04:51:00,
2013-08-06 20:56:00,57.2,52.1,29.92,North,349,0.0,0.0,83,0.01,CLR,,0.09,WeatherDisplay:10.37,2013-08-07 04:56:00,
2013-08-06 21:01:00,57.1,52.0,29.92,North,349,0.0,0.0,83,0.01,CLR,,0.09,WeatherDisplay:10.37,2013-08-07 05:01:00,
2013-08-06 21:06:00,56.9,52.1,29.92,North,349,0.0,0.0,84,0.01,CLR,,0.09,WeatherDisplay:10.37,2013-08-07 05:06:00,
2013-08-06 21:11:00,56.9,52.1,29.92,North,349,0.0,0.0,84,0.01,CLR,,0.09,WeatherDisplay:10.37,2013-08-07 05:11:00,
2013-08-06 21:16:00,57.0,52.2,29.92,North,349,0.0,0.0,84,0.01,CLR,,0.09,WeatherDisplay:10.37,2013-08-07 05:16:00,
2013-08-06 21:21:00,56.9,52.1,29.92,North,349,0.0,0.0,84,0.01,RA,,0.10,WeatherDisplay:10.37,2013-08-07 05:21:00,
2013-08-06 21:26:00,56.8,52.3,29.92,North,349,0.0,0.0,85,0.01,RA,,0.10,WeatherDisplay:10.37,2013-08-07 05:26:00,
2013-08-06 21:31:00,56.6,52.5,29.92,North,349,0.0,0.0,86,0.01,CLR,,0.10,WeatherDisplay:10.37,2013-08-07 05:31:00,
2013-08-06 21:36:00,56.4,52.6,29.92,North,349,0.0,0.0,87,0.02,RA,,0.11,WeatherDisplay:10.37,2013-08-07 05:36:00,
2013-08-06 21:41:00,56.2,52.4,29.92,North,349,0.0,0.0,87,0.02,RA,,0.11,WeatherDisplay:10.37,2013-08-07 05:41:00,
2013-08-06 21:46:00,56.1,52.3,29.92,North,349,0.0,0.0,87,0.02,,,0.11,WeatherDisplay:10.37,2013-08-07 05:46:00,
2013-08-06 21:51:00,56.0,52.2,29.92,North,349,0.0,0.0,87,0.02,CLR,,0.11,WeatherDisplay:10.37,2013-08-07 05:51:00,
2013-08-06 21:56:00,56.0,52.5,29.92,North,349,0.0,0.0,88,0.03,RA,,0.12,WeatherDisplay:10.37,2013-08-07 05:56:00,
2013-08-06 22:01:00,55.9,52.4,29.92,North,349,0.0,0.0,88,0.03,RA,,0.12,WeatherDisplay:10.37,2013-08-07 06:01:00,
2013-08-06 22:06:00,55.9,52.4,29.92,North,349,0.0,0.0,88,0.03,,,0.12,WeatherDisplay:10.37,2013-08-07 06:06:00,
2013-08-06 22:11:00,55.8,52.3,29.92,North,349,0.0,0.0,88,0.03,CLR,,0.12,WeatherDisplay:10.37,2013-08-07 06:11:00,
2013-08-06 22:16:00,55.8,52.6,29.92,North,349,0.0,0.0,89,0.03,CLR,,0.12,WeatherDisplay:10.37,2013-08-07 06:16:00,
2013-08-06 22:21:00,55.7,52.5,29.92,North,349,0.0,0.0,89,0.02,CLR,,0.12,WeatherDisplay:10.37,2013-08-07 06:21:00,
2013-08-06 22:26:00,55.5,52.6,29.92,North,349,0.0,0.0,90,0.02,CLR,,0.12,WeatherDisplay:10.37,2013-08-07 06:26:00,
2013-08-06 22:31:00,55.3,52.4,29.92,North,349,0.0,0.0,90,0.02,CLR,,0.12,WeatherDisplay:10.37,2013-08-07 06:31:00,
2013-08-06 22:36:00,55.0,52.4,29.92,North,349,0.0,0.0,91,0.02,RA,,0.13,WeatherDisplay:10.37,2013-08-07 06:36:00,
2013-08-06 22:41:00,54.7,52.1,29.92,North,349,0.0,0.0,91,0.02,RA,,0.13,WeatherDisplay:10.37,2013-08-07 06:41:00,
2013-08-06 22:46:00,54.4,52.1,29.92,North,349,0.0,0.0,92,0.02,CLR,,0.13,WeatherDisplay:10.37,2013-08-07 06:46:00,
2013-08-06 22:51:00,54.3,52.0,29.92,North,349,0.0,0.0,92,0.02,CLR,,0.13,WeatherDisplay:10.37,2013-08-07 06:51:00,
2013-08-06 22:56:00,54.1,51.8,29.92,North,349,0.0,0.0,92,0.01,CLR,,0.13,WeatherDisplay:10.37,2013-08-07 06:56:00,
2013-08-06 23:01:00,54.0,52.0,29.92,North,349,0.0,0.0,93,0.01,CLR,,0.13,WeatherDisplay:10.37,2013-08-07 07:01:00,
2013-08-06 23:06:00,53.9,51.9,29.92,North,349,0.0,0.0,93,0.01,CLR,,0.13,WeatherDisplay:10.37,2013-08-07 07:06:00,
2013-08-06 23:11:00,53.9,51.9,29.92,North,349,0.0,0.0,93,0.02,RA,,0.14,WeatherDisplay:10.37,2013-08-07 07:11:00,
2013-08-06 23:16:00,53.8,51.8,29.92,North,349,0.0,0.0,93,0.02,RA,,0.14,WeatherDisplay:10.37,2013-08-07 07:16:00,
2013-08-06 23:21:00,53.7,52.0,29.92,North,349,0.0,0.0,94,0.02,,,0.14,WeatherDisplay:10.37,2013-08-07 07:21:00,
2013-08-06 23:26:00,53.7,52.0,29.92,North,349,0.0,0.0,94,0.03,RA,,0.15,WeatherDisplay:10.37,2013-08-07 07:26:00,
2013-08-06 23:31:00,53.7,52.0,29.92,North,349,0.0,0.0,94,0.03,RA,,0.15,WeatherDisplay:10.37,2013-08-07 07:31:00,
2013-08-06 23:36:00,53.6,51.9,29.92,North,349,0.0,0.0,94,0.02,CLR,,0.15,WeatherDisplay:10.37,2013-08-07 07:36:00,
2013-08-06 23:41:00,53.6,51.9,29.92,North,349,0.0,0.0,94,0.03,RA,,0.16,WeatherDisplay:10.37,2013-08-07 07:41:00,
2013-08-06 23:46:00,53.6,51.9,29.92,North,349,0.0,0.0,94,0.03,RA,,0.16,WeatherDisplay:10.37,2013-08-07 07:46:00,
2013-08-06 23:51:00,53.6,51.9,29.92,North,349,0.0,0.0,94,0.03,CLR,,0.16,WeatherDisplay:10.37,2013-08-07 07:51:00,
2013-08-06 23:56:00,53.5,51.8,29.92,North,349,0.0,0.0,94,0.03,CLR,,0.16,WeatherDisplay:10.37,2013-08-07 07:56:00,